Big Lake, AK

11:41 PM AKDT on August 30, 2016 (GMT -0800)
Wasilla

Weather History for PAWS - October, 2013

Change the Weather History Date:

Friday, October 4, 2013

  Actual Average Record
Temperature  
Mean Temperature 45 °F -  
Max Temperature 53 °F 48 °F 59 °F (2001)
Min Temperature 35 °F 31 °F 16 °F (1972)
Degree Days  
Heating Degree Days 20    
Moisture  
Dew Point 33 °F    
Average Humidity 65    
Maximum Humidity 81    
Minimum Humidity 51    
Precipitation  
Precipitation 0.00 in - - ()
Sea Level Pressure  
Sea Level Pressure 29.59 in    
Wind  
Wind Speed 4 mph (SSE)    
Max Wind Speed 10 mph    
Max Gust Speed -    
Visibility 10 miles    
Events      
Averages and records for this station are not official NWS values.
T = Trace of Precipitation, MM = Missing Value Source: NWS Daily Summary

Daily Weather History Graph

Daily Weather History Graph

Search for Another Location

Airport or City:

Trip Planner

Search our weather history database for the weather conditions in past years. The results will help you decide how hot, cold, wet, or windy it might be!

Date:

Astronomy

Oct. 04, 2013 Rise Set
Actual Time 8:13 AM AKDT 7:18 PM AKDT
Civil Twilight 7:30 AM AKDT 8:01 PM AKDT
Nautical Twilight 6:39 AM AKDT 8:52 PM AKDT
Astronomical Twilight 5:45 AM AKDT 9:45 PM AKDT
Moon 8:06 AM AKDT (10/4) 6:52 PM AKDT (10/4)
Length of Visible Light 12h 31m
Length of Day
11h 04m
Waning Crescent, 0% of the Moon is Illuminated
Oct 4
Waning Crescent
Oct 4
New
Oct 11
First Quarter
Oct 18
Full
Oct 26
Last Quarter

Hourly Weather History & Observations

Time (AKDT) Temp. Windchill Dew Point Humidity Pressure Visibility Wind Dir Wind Speed Gust Speed Precip Events Conditions
12:16 AM - - - N/A% 29.46 in 10.0 mi ENE 10.4 mph - N/A   Scattered Clouds
12:36 AM - - - N/A% 29.46 in 10.0 mi ENE 6.9 mph - N/A   Overcast
12:56 AM - - - N/A% 29.46 in 10.0 mi ENE 10.4 mph - N/A   Overcast
1:16 AM 48.2 °F - 32.0 °F 54% 29.47 in 10.0 mi ENE 6.9 mph - N/A   Overcast
1:36 AM 48.2 °F - 32.0 °F 54% 29.47 in 10.0 mi ESE 4.6 mph - N/A   Overcast
1:56 AM 44.6 °F 42.2 °F 32.0 °F 61% 29.47 in 10.0 mi ESE 4.6 mph - N/A   Overcast
2:16 AM 44.6 °F 42.2 °F 32.0 °F 61% 29.48 in 10.0 mi ENE 4.6 mph - N/A   Overcast
2:36 AM 44.6 °F 43.1 °F 32.0 °F 61% 29.48 in 10.0 mi ENE 3.5 mph - N/A   Mostly Cloudy
2:56 AM 44.6 °F 42.2 °F 32.0 °F 61% 29.48 in 10.0 mi ENE 4.6 mph - N/A   Mostly Cloudy
3:16 AM 44.6 °F 43.1 °F 30.2 °F 57% 29.49 in 10.0 mi ESE 3.5 mph - N/A   Mostly Cloudy
3:36 AM 42.8 °F - 30.2 °F 61% 29.50 in 10.0 mi Calm Calm - N/A   Scattered Clouds
3:56 AM 39.2 °F - 30.2 °F 70% 29.49 in 10.0 mi Calm Calm - N/A   Mostly Cloudy
4:16 AM 39.2 °F - 30.2 °F 70% 29.50 in 10.0 mi Calm Calm - N/A   Overcast
4:36 AM 39.2 °F - 30.2 °F 70% 29.50 in 10.0 mi Calm Calm - N/A   Overcast
4:56 AM 39.2 °F - 32.0 °F 75% 29.51 in 10.0 mi Calm Calm - N/A   Overcast
5:16 AM 39.2 °F - 32.0 °F 75% 29.51 in 10.0 mi Calm Calm - N/A   Overcast
5:36 AM 39.2 °F 37.0 °F 32.0 °F 75% 29.52 in 10.0 mi NNE 3.5 mph - N/A   Overcast
5:56 AM 41.0 °F - 32.0 °F 70% 29.52 in 10.0 mi Calm Calm - N/A   Overcast
6:16 AM 39.2 °F - 32.0 °F 75% 29.52 in 10.0 mi Calm Calm - N/A   Overcast
6:36 AM 41.0 °F - 30.2 °F 65% 29.53 in 10.0 mi Calm Calm - N/A   Overcast
6:56 AM 39.2 °F - 30.2 °F 70% 29.53 in 10.0 mi Calm Calm - N/A   Overcast
7:16 AM 39.2 °F - 30.2 °F 70% 29.54 in 10.0 mi Calm Calm - N/A   Mostly Cloudy
7:36 AM 39.2 °F - 32.0 °F 75% 29.54 in 10.0 mi Calm Calm - N/A   Mostly Cloudy
7:56 AM 39.2 °F - 32.0 °F 75% 29.54 in 10.0 mi Calm Calm - N/A   Overcast
8:16 AM 37.4 °F - 30.2 °F 75% 29.55 in 10.0 mi Calm Calm - N/A   Overcast
8:36 AM 39.2 °F - 32.0 °F 75% 29.56 in 10.0 mi Calm Calm - N/A   Scattered Clouds
8:56 AM 39.2 °F - 32.0 °F 75% 29.56 in 10.0 mi Calm Calm - N/A   Mostly Cloudy
9:16 AM 37.4 °F - 32.0 °F 81% 29.57 in 10.0 mi Calm Calm - N/A   Overcast
9:36 AM 37.4 °F - 32.0 °F 81% 29.57 in 10.0 mi Calm Calm - N/A   Mostly Cloudy
9:56 AM 39.2 °F - 33.8 °F 81% 29.58 in 10.0 mi Calm Calm - N/A   Partly Cloudy
10:16 AM 39.2 °F - 33.8 °F 81% 29.58 in 10.0 mi Calm Calm - N/A   Clear
10:36 AM 41.0 °F - 33.8 °F 76% 29.58 in 10.0 mi Calm Calm - N/A   Clear
10:56 AM 42.8 °F - 33.8 °F 70% 29.59 in 10.0 mi Calm Calm - N/A   Clear
11:16 AM 44.6 °F 43.1 °F 35.6 °F 71% 29.59 in 10.0 mi ESE 3.5 mph - N/A   Clear
11:36 AM 46.4 °F 45.2 °F 33.8 °F 62% 29.60 in 10.0 mi SE 3.5 mph - N/A   Clear
11:56 AM 46.4 °F 45.2 °F 33.8 °F 62% 29.60 in 10.0 mi South 3.5 mph - N/A   Clear
12:16 PM 46.4 °F - 35.6 °F 66% 29.61 in 10.0 mi Calm Calm - N/A   Clear
12:36 PM 48.2 °F - 35.6 °F 62% 29.61 in 10.0 mi South 4.6 mph - N/A   Clear
12:56 PM 48.2 °F - 35.6 °F 62% 29.62 in 10.0 mi South 3.5 mph - N/A   Clear
1:16 PM 48.2 °F - 35.6 °F 62% 29.62 in 10.0 mi SSW 4.6 mph - N/A   Clear
1:36 PM 50.0 °F - 35.6 °F 58% 29.62 in 10.0 mi SE 4.6 mph - N/A   Clear
1:56 PM 50.0 °F - 35.6 °F 58% 29.62 in 10.0 mi ESE 4.6 mph - N/A   Clear
2:16 PM 51.8 °F - 37.4 °F 58% 29.62 in 10.0 mi Calm Calm - N/A   Clear
2:36 PM 51.8 °F - 35.6 °F 54% 29.62 in 10.0 mi SSW 3.5 mph - N/A   Clear
2:56 PM 51.8 °F - 35.6 °F 54% 29.62 in 10.0 mi Calm Calm - N/A   Clear
3:16 PM 51.8 °F - 37.4 °F 58% 29.62 in 10.0 mi SE 3.5 mph - N/A   Clear
3:36 PM 53.6 °F - 37.4 °F 54% 29.63 in 10.0 mi Calm Calm - N/A   Clear
3:56 PM 51.8 °F - 37.4 °F 58% 29.63 in 10.0 mi Calm Calm - N/A   Clear
4:16 PM 53.6 °F - 37.4 °F 54% 29.63 in 10.0 mi South 4.6 mph - N/A   Clear
4:36 PM 53.6 °F - 37.4 °F 54% 29.63 in 10.0 mi South 3.5 mph - N/A   Clear
4:56 PM 53.6 °F - 35.6 °F 51% 29.64 in 10.0 mi SW 5.8 mph - N/A   Mostly Cloudy
5:16 PM 53.6 °F - 35.6 °F 51% 29.64 in 10.0 mi SW 8.1 mph - N/A   Overcast
5:36 PM 53.6 °F - 35.6 °F 51% 29.64 in 10.0 mi SW 6.9 mph - N/A   Overcast
5:56 PM 51.8 °F - 35.6 °F 54% 29.65 in 10.0 mi SW 4.6 mph - N/A   Overcast
6:16 PM 51.8 °F - 35.6 °F 54% 29.65 in 10.0 mi SW 6.9 mph - N/A   Overcast
6:36 PM 50.0 °F - 33.8 °F 54% 29.66 in 10.0 mi South 3.5 mph - N/A   Overcast
6:56 PM 50.0 °F - 33.8 °F 54% 29.66 in 10.0 mi SSW 4.6 mph - N/A   Overcast
7:16 PM 50.0 °F - 33.8 °F 54% 29.67 in 10.0 mi SSW 3.5 mph - N/A   Overcast
7:36 PM 48.2 °F - 33.8 °F 58% 29.67 in 10.0 mi SW 3.5 mph - N/A   Overcast
7:56 PM 48.2 °F - 32.0 °F 54% 29.67 in 10.0 mi SW 3.5 mph - N/A   Overcast
8:16 PM 48.2 °F - 32.0 °F 54% 29.68 in 10.0 mi Calm Calm - N/A   Overcast
8:36 PM 46.4 °F - 32.0 °F 57% 29.69 in 10.0 mi Calm Calm - N/A   Scattered Clouds
8:56 PM 44.6 °F - 32.0 °F 61% 29.69 in 10.0 mi Calm Calm - N/A   Mostly Cloudy
9:16 PM 42.8 °F - 33.8 °F 70% 29.70 in 10.0 mi Calm Calm - N/A   Overcast
9:36 PM 41.0 °F - 32.0 °F 70% 29.70 in 10.0 mi Calm Calm - N/A   Mostly Cloudy
9:56 PM 41.0 °F - 33.8 °F 76% 29.70 in 10.0 mi Calm Calm - N/A   Overcast
10:16 PM 39.2 °F - 32.0 °F 75% 29.71 in 10.0 mi Calm Calm - N/A   Overcast
10:36 PM 39.2 °F - 32.0 °F 75% 29.71 in 10.0 mi Calm Calm - N/A   Scattered Clouds
10:56 PM 37.4 °F - 30.2 °F 75% 29.71 in 10.0 mi Calm Calm - N/A   Clear
11:16 PM 37.4 °F - 32.0 °F 81% 29.72 in 10.0 mi Calm Calm - N/A   Clear
11:36 PM 37.4 °F - 30.2 °F 75% 29.73 in 10.0 mi Calm Calm - N/A   Clear
11:56 PM 35.6 °F - 30.2 °F 81% 29.73 in 10.0 mi Calm Calm - N/A   Clear